Tracking 19192 objects as of 18-Jun-2018
HD Live streaming from Space Station
objects crossing your sky now

FENGYUN 1C DEB

Track FENGYUN 1C DEB now!
10-day predictions


NORAD ID: 32194
Int'l Code: 1999-025CUQ
Perigee: 677.6 km
Apogee: 788.0 km
Inclination: 99.1 °
Period: 99.3 minutes
Semi major axis: 7103 km
RCS: 0.0086 m2 (small)
Launch date: May 10, 1999
Source: People's Republic of China (PRC)
Launch site: Taiyaun Space Center, China (TSC)

Note: This is SATELLITE DEBRIS
aabbcc
Your satellite tracking list
Your tracking list is empty




NASA's NSSDC Master Catalog

Two Line Element Set (TLE):
1 32194U 99025CUQ 18167.05772267 +.00000850 +00000-0 +22525-3 0  9995
2 32194 099.0976 108.1154 0077754 309.1095 050.3201 14.49999580321092
Source of the keplerian elements: AFSPC